ARIANE 5 R/B (45029 NORAD) Tracking and Keplerian Element Data

This shows tracking and keplerian element data for the satellite.

Feedback or suggestion? Click here.




ElementValue
Catalog45029
NameARIANE 5 R/B
Epoch Orbit64
Epoch Day44.82581862
Epoch Year2020
RAAN244.6867
Inclination5.6331
Eccentricity0.7282402
Argument of Perigee199.6067
Mean Anonmoly101.8081
Mean Motion2.30236974
Decay Rate2.287E-05
L11 45029U 20005D 20044.82581862 .00002287 00000-0 24094-3 0 9998
L22 45029 5.6331 244.6867 7282402 199.6067 101.8081 2.30236974 645

Live tracking and technical data element details for ARIANE 5 R/B (NORAD 45029). ARIANE 5 R/B can be tracked NOW for your location showing map with azimuth and elevation plus other details from your city location.

Track the satellite on the map from your city or location and see movement details for azimuth, elevation, latitude, longitude, range, height, and movement on the map or in text.







IsCatalogInMostPopularTable: catalog: 45029, numindb: 15
Update: records affected: 1



GetName: 45029 ARIANE 5 R/B

Hit Count: updated at: Mon, 24 Feb 2020 18:11:50 GMT